Regional Weather Roundup
Issued by NWS

Home | Current Version | Previous Version | Text Only | Print | Product List | Glossary On
Versions: 1 2 3 4 5 6 7 8 9 10 11 12 13 14 15 16 17 18 19 20 21 22 23 24 25 26 27 28 29 30 31 32 33 34 35 36 37 38 39 40 41 42 43 44 45 46 47 48 49 50
000
ASUS42 KKEY 052210
RWRKEY

FLORIDA REGIONAL WEATHER ROUNDUP FOR THE FLORIDA KEYS
NATIONAL WEATHER SERVICE KEY WEST FLORIDA
500 PM EST THU MAR 05 2015

...SOUTH FLORIDA AND THE KEYS...

CITY           SKY/WX    TMP DP  RH WIND       PRES   REMARKS
FORT MYERS     SUNNY     80  70  71 SW10      30.08R
SW REGIONAL AP SUNNY     81  69  67 MISG      30.09R
NAPLES         SUNNY     80  71  74 S10       30.09R
MIAMI          MOSUNNY   81  66  60 S13       30.09R
WEST KENDALL   SUNNY     81  68  64 S10G18    30.09R
HOMESTEAD      SUNNY     81  69  65 SE10      30.09R
MARATHON       SUNNY     80  72  76 SE8       30.08S
BOCA CHICA NAS MOSUNNY   79  70  74 SE8       30.08R
KEY WEST INTL  SUNNY     80  72  76 E9        30.08R

...INTERNATIONAL WEATHER...

CITY           SKY/WX    TMP DP  RH WIND       PRES   REMARKS
NASSAU BAHAMAS MOSUNNY   79  70  73 SE9       30.11S
CANCUN MEXICO  MOSUNNY   82  73  74 SE13      30.01R
COZUMEL MEXICO MOSUNNY   81  72  74 SE14      30.00R

ADJACENT COASTAL WATERS...

STATION/POSITION TIME  SKY/WX   TEMP    WIND        PRES    WAVE
                                AIR SEA DIR/SP/G            HT/PER
                 (UTC)          (F)     (DEG/KT/KT) (MB)    (FT/S)
PULASKI SHOAL LI 2100            76     130/  7/  7 1017.9F
SAND KEY         2150            77     100/  8/ 10 1018.3R
SOMBRERO KEY     2200            80     100/  6/  7 1019.5R
LONG KEY         2100            78 79   80/  2/  6 1019.6F
MOLASSES REEF    2200            77 76  140/  6/  7 1019.0F
FOWEY ROCKS      NOT AVBL
Buoy 42080       NOT AVBL

$$



USA.gov is the U.S. government's official web portal to all federal, state and local government web resources and services.